Location: Zagreb
(45.8150°N, 15.9819°E)
Time: 10:04:28
(UTC+02:00)

Tiangong - Visible Passes

Search period start: 08 May 2026 00:00
Search period end: 18 May 2026 00:00
Orbit: 374 x 381 km, 41.5° (Epoch: 8 May)

Date Brightness Start Highest point End Pass type
(mag) Time Alt. Az. Time Alt. Az. Time Alt. Az.
8 May 0.2 03:23:04 14° SE 03:23:04 14° SE 03:24:04 10° ESE visible
8 May -1.2 04:55:19 10° WSW 04:58:11 34° S 05:01:05 10° ESE visible
9 May -1.1 03:55:54 27° S 03:56:24 28° SSE 03:59:09 10° ESE visible
10 May 0.5 02:56:40 12° ESE 02:56:40 12° ESE 02:57:05 10° ESE visible
10 May -1.4 04:28:42 15° WSW 04:30:52 36° S 04:33:47 10° ESE visible
11 May -1.1 03:29:28 31° SSE 03:29:28 31° SSE 03:31:50 10° ESE visible
12 May -1.5 04:02:18 26° SW 04:03:23 35° S 04:06:17 10° ESE visible
13 May -0.1 03:03:08 19° ESE 03:03:08 19° ESE 03:04:18 10° ESE visible
13 May -1.0 04:35:12 11° WSW 04:37:43 26° SSW 04:40:23 10° SE visible
14 May -1.2 03:36:09 31° S 03:36:09 31° S 03:38:34 10° ESE visible
15 May -0.8 04:09:24 20° SW 04:09:56 21° SSW 04:12:20 10° SSE visible
